Location: Bakhuizen
(52.8696°N, 5.4575°E)
Time: 19:57:44
(UTC+00:00)

Cosmos 1461 - Pass Details

Date: 11 May 2021
Orbit: 510 x 653 km, 65.0° (Epoch: 20 June)

Event Time Altitude Azimuth Distance (km) Brightness Sun altitude
Exits shadow 23:07:22 40° 190° (S) 963 3.5 -18.8°
Maximum altitude 23:08:52 62° 128° (SE) 729 3.1 -18.8°
Drops below altitude 10° 23:13:25 10° 48° (NE) 2,025 6.2 -18.8°
Sets 23:15:42 0° 45° (NE) 2,917 7.1 -18.9°
